SCP
-0 0 0 -0 -0 -0 -0 -0 -0 -0 -0 -0 -0 -0 -0 -0 0 0 0 -0 -0 -0 -0 -0 -0 0 0 0 0 0 0 0 0 0 0 0 0 0 0 0 0 0 0
-0 -0 0 -0 0 -0 -0 -0 -0 -0 -0 -0 -0 0 0 0 0 0 -0 -0 -0 -0 -0 -0 -0 -0 -0 -0 -0 -0 -0 -0 -0 0 0 0 0 0 0 0 0 0 0
0 0 0 0 0 0 0 0 0 0 0 0 0 0 0 0 0 0 -0 -0 -0 -0 -0 -0 -0 -0 -0 -0 -0 -0 -0 -0 -0 -0 -0 -0 -0 -0 -0 0 -0 -0 0
0 0 0 0 0 0 0 0 0 0 0 0 0 0 0 0 0 0 0 0 -0 -0 -0 -0 -0 -0 -0 -0 -0 -0 -0 -0 -0 -0 -0 -0 -0 -0 -0 -0 -0 -0 -0
0 0 -0 0 0 0 0 0 0 0 0 0 0 0 0 0 0 0 0 0 0 0 0 -0 -0 -0 -0 -0 -0 -0 0 0 -0 -0 -0 -0 -0 -0 0 -0 -0 0 -0
-0 0 0 0 0 0 0 0 0 0 0 0 0 0 0 0 0 0 0 0 0 0 -0 -0 -0 -0 -0 -0 -0 -0 -0 0 0 0 -0 -0 -0 0 0 0 -0 -0 0
0 0 0 -0 -0 0 0 0 0 0 0 0 0 0 0 0 0 0 0 0 0 -0 -0 -0 -0 -0 -0 -0 -0 -0 -0 -0 0 0 0 0 0 0 0 0 0 0 0
-0 -0 0 -0 -0 0 0 0 0 0 0 0 0 0 0 0 0 0 -0 -0 -0 -0 -0 -0 -0 -0 -0 -0 -0 -0 -0 -0 -0 0 0 0 0 0 0 0 0 0 0
-0 -0 -0 -0 0 -0 0 0 0 0 0 0 0 0 0 0 0 0 0 -0 -0 -0 -0 -0 -0 0 0 -0 -0 -0 -0 -0 0 0 0 0 0 0 0 0 0 0 0
0 -0 -0 -0 -0 0 0 0 0 0 0 0 0 0 0 0 0 0 0 0 0 0 0 0 0 0 0 0 0 0 0 0 0 0 0 0 0 0 0 0 0 0 0
0 -0 -0 0 -0 0 0 -0 0 0 0 0 0 0 0 0 0 0 0 0 0 0 0 0 0 0 0 0 0 1 0 0 0 0 0 -0 -0 -0 0 0 0 0 0
-0 -0 -0 0 -0 -0 -0 0 0 0 0 -0 0 0 0 0 0 0 0 0 0 0 0 0 0 0 -0 0 0 0 0 0 0 0 0 0 0 0 0 0 0 0 0
0 0 -0 -0 -0 -0 -0 0 0 0 0 0 0 0 0 0 0 0 0 0 0 0 0 0 0 0 0 0 0 0 0 0 0 0 0 0 1 1 0 1 0 0 0
0 0 0 0 0 0 0 0 0 0 0 0 0 0 0 0 0 0 0 0 0 0 0 0 0 0 0 0 0 0 0 0 0 0 0 0 0 0 0 0 0 0 0
0 0 0 0 0 0 0 0 0 0 0 0 0 0 0 0 0 0 0 0 0 0 1 1 1 0 0 0 0 0 0 0 0 0 0 0 0 0 0 0 0 0 0
0 0 0 0 0 0 0 0 0 0 0 0 0 0 0 0 0 0 0 0 0 0 0 0 0 0 0 0 0 0 0 0 0 0 0 0 0 0 0 0 0 0 0
0 0 0 0 0 0 0 0 0 0 0 0 0 0 0 0 0 0 0 0 0 0 0 0 0 0 0 0 0 0 0 0 0 0 0 0 0 0 0 0 0 0 0
0 0 0 0 0 0 0 0 0 0 0 0 0 0 0 0 0 0 0 0 0 0 0 0 0 0 0 0 0 0 0 0 0 0 0 0 0 0 0 1 1 0 0
-0 0 -0 0 0 0 0 0 0 0 0 0 0 0 0 0 0 0 0 0 0 0 0 0 0 0 0 0 0 0 0 0 0 0 0 0 0 0 1 1 1 1 1
-0 -0 0 -0 0 0 0 0 0 0 0 0 0 0 0 0 0 0 0 0 0 0 0 0 0 0 0 0 0 0 0 0 0 0 0 0 0 0 0 0 0 0 1
-0 0 0 0 0 0 0 0 0 0 0 0 0 0 0 0 0 0 0 0 0 0 0 0 0 0 0 0 0 0 0 0 0 0 0 0 0 0 0 0 0 0 0
0 0 0 0 0 0 0 0 0 0 0 0 0 0 0 -0 -0 -0 0 0 0 0 0 0 0 0 0 0 0 0 0 0 0 0 0 0 0 0 0 0 0 0 0
0 0 0 0 0 0 0 0 0 0 0 0 0 0 0 0 0 0 0 0 0 -0 -0 -0 -0 0 0 0 0 0 0 0 0 0 0 0 0 0 0 0 0 0 0
0 0 0 0 0 0 0 0 0 0 0 0 0 0 0 0 0 0 0 0 0 0 -0 -0 -0 0 0 0 0 0 0 0 0 0 0 0 0 0 0 0 0 0 0
0 0 0 0 0 0 0 0 0 0 0 0 0 0 0 0 0 0 0 0 0 0 -0 -0 0 -0 0 0 0 0 0 0 0 0 0 0 0 0 0 0 0 0 0
0 0 0 0 0 0 0 0 0 0 0 0 0 0 0 0 0 0 0 0 0 0 0 0 0 0 0 0 0 0 0 0 0 0 0 0 0 0 0 0 0 0 0
Wind_Speed_500mb
21 20 21 24 24 24 24 25 26 26 27 28 28 28 27 26 26 27 28 28 29 29 30 31 32 33 34 36 35 37 41 45 46 47 47 46 44 41 39 38 38 37 35
17 16 17 21 23 23 21 22 24 24 23 23 23 22 23 22 21 22 22 23 24 25 26 25 25 26 26 26 27 28 28 30 33 37 36 36 37 37 35 34 33 34 34
14 15 15 20 25 24 22 20 19 18 17 16 16 16 17 17 16 16 16 16 17 19 21 22 20 19 19 19 20 19 20 21 22 22 23 24 25 29 30 30 29 29 29
14 13 11 16 22 25 23 19 16 14 12 11 10 10 11 11 11 11 11 11 12 13 15 16 17 15 13 13 13 13 12 13 15 16 16 14 13 14 20 23 23 26 25
19 18 15 13 19 24 22 19 15 13 11 8 7 5 5 6 5 5 6 7 8 9 10 11 11 10 10 9 9 9 7 6 6 7 10 12 8 4 7 15 15 19 22
21 16 18 18 19 18 17 17 16 12 10 10 9 8 7 4 3 2 1 2 4 4 5 7 8 8 7 6 5 5 6 9 9 8 5 11 5 2 1 7 10 10 17
14 13 11 14 18 22 21 19 20 18 15 12 11 11 12 12 12 9 7 7 7 8 9 9 9 8 7 4 3 3 6 9 11 9 9 8 7 5 6 9 9 10 13
18 13 8 6 8 11 16 17 17 18 18 18 17 17 18 17 16 13 12 12 13 14 14 14 13 12 12 12 11 9 10 13 15 15 16 19 14 9 9 11 15 14 14
28 25 13 9 8 6 7 9 15 19 20 20 21 22 22 20 18 15 14 14 15 15 17 19 17 16 16 17 18 18 18 19 20 16 19 23 20 13 8 7 18 19 19
18 17 16 13 8 5 5 6 11 13 16 19 21 22 23 21 19 16 16 14 10 8 11 13 16 17 14 18 16 16 18 24 27 22 22 22 18 19 17 14 13 19 21
13 1 11 10 13 10 8 3 4 7 11 13 17 17 20 21 21 20 16 12 11 10 15 17 13 14 18 18 12 18 20 31 24 16 16 13 16 18 23 22 17 11 21
10 8 11 3 11 12 11 9 7 11 13 13 14 15 19 22 25 23 19 17 18 18 20 21 18 18 18 19 17 14 16 26 15 11 12 14 25 22 23 24 19 17 21
7 6 16 18 7 6 14 13 14 15 14 14 13 18 20 20 20 23 30 29 25 25 24 25 23 19 12 12 9 9 15 18 11 16 12 14 12 17 17 15 15 15 17
11 10 12 11 4 7 8 18 20 20 21 21 21 22 26 26 29 35 34 33 29 27 29 30 26 25 21 19 18 17 17 17 16 16 14 15 14 21 18 25 17 19 21
15 10 11 6 8 10 17 23 29 30 32 32 29 29 33 37 35 30 35 35 36 38 35 34 32 29 26 24 25 24 20 18 14 16 18 18 16 23 21 22 24 24 27
6 7 4 12 27 30 33 33 33 36 34 25 22 20 25 28 25 29 36 39 35 33 34 33 32 30 26 23 18 20 22 24 22 23 21 20 19 18 14 21 30 27 18
13 13 11 11 17 26 29 30 34 40 36 31 17 10 11 16 22 30 31 32 29 30 28 28 25 23 24 26 24 26 26 24 27 27 26 20 17 17 17 16 22 20 17
16 10 15 16 19 19 24 26 27 33 30 22 18 20 20 20 18 16 17 27 30 26 24 24 22 19 20 24 22 18 18 20 23 27 30 28 29 26 18 16 22 18 17
11 10 13 13 18 18 12 15 18 23 33 39 37 33 33 27 25 23 20 16 12 15 15 13 10 12 13 13 13 12 13 18 21 24 23 18 14 15 12 8 9 13 20
11 12 9 9 9 8 3 6 8 18 25 30 37 41 41 40 40 36 26 22 20 18 15 8 15 19 19 16 16 16 14 17 10 16 17 11 11 10 6 5 6 9 17
3 5 4 5 6 5 7 9 12 17 22 27 34 49 41 37 40 42 46 41 28 26 17 10 13 26 23 21 29 29 23 8 16 3 11 10 10 9 6 6 10 13 16
5 8 9 12 11 13 15 17 22 21 23 32 39 45 45 53 55 47 50 57 69 54 54 44 25 27 28 25 30 40 17 24 8 13 4 6 13 11 8 11 10 10 8
16 18 18 16 17 15 20 22 23 29 35 37 37 46 56 53 59 44 40 41 45 50 77 88 83 51 34 40 36 28 16 4 17 5 13 20 12 10 6 5 2 3 5
14 16 23 24 19 19 22 27 31 34 37 39 39 42 49 54 46 46 54 56 45 44 41 40 38 61 60 65 62 45 26 27 11 6 8 21 19 12 9 11 9 9 9
20 17 13 18 23 27 31 37 43 45 47 45 45 47 48 43 47 51 53 53 47 38 39 30 32 34 48 54 47 30 35 25 29 30 15 5 11 16 16 17 14 11 7
7 9 15 21 22 25 33 36 35 37 39 46 52 59 59 56 57 56 57 57 48 45 41 37 38 32 36 44 41 37 28 28 23 24 21 18 22 18 14 13 12 10 7
Wind_Direction_500mb
148 156 158 157 152 145 146 144 139 130 127 126 123 119 112 107 102 99 95 93 90 89 87 87 85 84 84 85 84 82 78 74 71 67 64 64 63 61 62 64 66 69 69
140 144 159 160 159 151 148 150 150 143 133 129 124 119 113 104 98 94 91 90 90 91 92 90 88 88 87 85 84 83 81 73 69 66 64 62 64 63 58 58 62 65 68
142 139 154 166 165 162 157 157 154 149 140 128 121 119 113 106 99 92 89 88 88 90 91 90 87 85 84 85 88 82 70 64 65 60 60 58 56 60 59 53 52 58 62
127 108 125 162 169 170 166 162 159 154 151 144 135 128 121 113 104 98 88 77 68 66 70 78 81 77 70 65 69 79 74 66 50 44 41 40 46 43 54 54 44 44 50
107 103 106 140 169 174 172 170 165 163 167 174 172 167 148 136 129 102 73 57 52 43 39 43 57 69 67 57 43 32 27 11 20 8 359 2 3 51 27 42 43 32 32
98 99 110 126 155 171 178 186 182 182 188 198 203 214 223 217 228 236 304 341 359 11 7 7 10 16 33 40 41 23 344 326 319 320 320 354 335 1 20 1 28 13 12
98 103 113 131 156 176 183 191 201 206 215 227 233 232 236 233 233 242 254 276 302 320 329 327 322 326 319 305 299 308 303 296 293 284 278 288 308 263 289 287 329 352 338
70 84 88 123 157 174 191 201 210 222 232 242 249 251 248 247 250 257 275 298 312 316 314 305 303 301 302 311 310 297 290 291 299 295 279 269 260 267 242 260 289 310 326
96 108 111 127 151 163 182 210 225 233 243 253 265 273 276 274 274 278 289 299 306 310 309 308 310 311 314 312 316 329 324 321 319 316 294 268 264 243 262 254 256 283 307
98 79 121 122 95 148 223 243 257 251 253 256 261 262 266 271 274 277 282 289 280 283 299 311 313 310 316 317 322 331 327 316 314 319 315 286 260 251 256 261 259 264 280
144 239 6 53 12 307 261 259 260 261 261 266 272 275 277 276 272 270 266 244 255 267 281 283 301 307 298 308 283 327 323 333 311 333 338 281 260 259 267 282 270 254 267
175 239 223 72 347 331 340 321 297 309 302 285 273 264 264 267 267 268 256 254 266 261 262 274 275 284 285 305 287 299 317 326 270 352 354 315 306 282 292 267 251 260 263
150 164 231 276 257 279 304 338 299 301 289 296 285 286 269 261 267 279 277 267 274 269 271 279 271 268 275 299 313 262 292 359 323 320 298 323 284 286 278 287 253 275 280
162 196 213 181 265 302 315 300 284 284 277 279 277 284 283 274 272 273 279 278 281 282 277 283 278 256 253 268 277 273 278 286 293 308 269 285 276 269 282 286 272 279 285
122 154 184 208 248 298 275 283 281 284 295 286 289 282 276 276 270 285 287 286 288 279 275 275 270 255 256 266 284 285 274 283 299 300 283 294 283 271 282 297 281 277 283
108 111 187 262 267 291 284 292 300 302 302 311 326 332 304 296 306 304 296 290 283 278 274 273 267 263 261 268 276 281 278 276 275 279 283 301 299 273 275 272 262 284 313
72 47 41 21 352 339 324 313 308 309 308 301 307 326 325 326 323 313 295 278 267 267 267 264 261 252 254 264 270 277 281 279 281 279 278 274 281 273 274 295 268 261 285
78 51 23 30 25 359 337 326 302 298 302 308 299 296 301 300 296 291 300 292 279 270 263 255 253 259 259 263 267 272 287 281 285 287 289 287 279 278 279 297 284 264 286
84 90 66 49 36 34 20 7 351 325 297 289 291 301 299 284 271 271 272 256 271 268 250 251 263 268 267 266 266 282 311 317 306 303 309 309 288 262 264 243 240 252 245
125 118 112 107 82 73 108 17 305 321 291 284 292 296 296 299 284 269 252 236 222 202 207 237 276 299 318 310 302 299 309 314 317 321 331 354 19 42 81 137 195 228 273
64 35 145 163 164 163 209 224 231 286 280 287 293 291 292 291 287 281 275 252 217 217 250 295 336 325 325 324 329 321 332 170 305 314 22 11 7 0 352 296 270 245 259
327 216 215 205 214 218 233 252 264 273 279 298 292 288 296 313 313 297 289 284 271 276 288 295 315 300 295 306 321 323 315 318 172 330 341 320 321 315 298 286 264 261 274
246 245 232 246 255 271 291 274 273 269 273 277 279 294 303 309 304 308 304 298 293 287 283 289 293 282 289 300 292 281 282 276 304 210 310 299 301 288 284 277 247 320 330
266 258 262 264 276 273 267 269 272 272 273 275 278 283 304 302 291 297 300 302 302 288 278 278 293 263 275 282 274 266 259 266 308 263 320 299 293 271 241 255 277 299 319
321 321 291 261 273 274 267 272 271 270 276 279 276 278 281 283 284 288 288 288 295 293 284 293 267 260 258 258 255 251 259 256 269 285 322 256 261 251 248 238 255 284 292
311 258 226 239 250 258 264 272 278 283 286 283 282 279 273 269 271 273 280 278 278 278 283 283 280 270 254 259 262 273 271 270 253 267 282 272 274 263 244 235 257 270 271
Wind_Speed_850mb
21 20 21 24 24 24 24 25 26 26 27 28 28 28 27 26 26 27 28 28 29 29 30 31 32 33 34 36 35 37 41 45 46 47 47 46 44 41 39 38 38 37 35
17 16 17 21 23 23 21 22 24 24 23 23 23 22 23 22 21 22 22 23 24 25 26 25 25 26 26 26 27 28 28 30 33 37 36 36 37 37 35 34 33 34 34
14 15 15 20 25 24 22 20 19 18 17 16 16 16 17 17 16 16 16 16 17 19 21 22 20 19 19 19 20 19 20 21 22 22 23 24 25 29 30 30 29 29 29
14 13 11 16 22 25 23 19 16 14 12 11 10 10 11 11 11 11 11 11 12 13 15 16 17 15 13 13 13 13 12 13 15 16 16 14 13 14 20 23 23 26 25
19 18 15 13 19 24 22 19 15 13 11 8 7 5 5 6 5 5 6 7 8 9 10 11 11 10 10 9 9 9 7 6 6 7 10 12 8 4 7 15 15 19 22
21 16 18 18 19 18 17 17 16 12 10 10 9 8 7 4 3 2 1 2 4 4 5 7 8 8 7 6 5 5 6 9 9 8 5 11 5 2 1 7 10 10 17
14 13 11 14 18 22 21 19 20 18 15 12 11 11 12 12 12 9 7 7 7 8 9 9 9 8 7 4 3 3 6 9 11 9 9 8 7 5 6 9 9 10 13
18 13 8 6 8 11 16 17 17 18 18 18 17 17 18 17 16 13 12 12 13 14 14 14 13 12 12 12 11 9 10 13 15 15 16 19 14 9 9 11 15 14 14
28 25 13 9 8 6 7 9 15 19 20 20 21 22 22 20 18 15 14 14 15 15 17 19 17 16 16 17 18 18 18 19 20 16 19 23 20 13 8 7 18 19 19
18 17 16 13 8 5 5 6 11 13 16 19 21 22 23 21 19 16 16 14 10 8 11 13 16 17 14 18 16 16 18 24 27 22 22 22 18 19 17 14 13 19 21
13 1 11 10 13 10 8 3 4 7 11 13 17 17 20 21 21 20 16 12 11 10 15 17 13 14 18 18 12 18 20 31 24 16 16 13 16 18 23 22 17 11 21
10 8 11 3 11 12 11 9 7 11 13 13 14 15 19 22 25 23 19 17 18 18 20 21 18 18 18 19 17 14 16 26 15 11 12 14 25 22 23 24 19 17 21
7 6 16 18 7 6 14 13 14 15 14 14 13 18 20 20 20 23 30 29 25 25 24 25 23 19 12 12 9 9 15 18 11 16 12 14 12 17 17 15 15 15 17
11 10 12 11 4 7 8 18 20 20 21 21 21 22 26 26 29 35 34 33 29 27 29 30 26 25 21 19 18 17 17 17 16 16 14 15 14 21 18 25 17 19 21
15 10 11 6 8 10 17 23 29 30 32 32 29 29 33 37 35 30 35 35 36 38 35 34 32 29 26 24 25 24 20 18 14 16 18 18 16 23 21 22 24 24 27
6 7 4 12 27 30 33 33 33 36 34 25 22 20 25 28 25 29 36 39 35 33 34 33 32 30 26 23 18 20 22 24 22 23 21 20 19 18 14 21 30 27 18
13 13 11 11 17 26 29 30 34 40 36 31 17 10 11 16 22 30 31 32 29 30 28 28 25 23 24 26 24 26 26 24 27 27 26 20 17 17 17 16 22 20 17
16 10 15 16 19 19 24 26 27 33 30 22 18 20 20 20 18 16 17 27 30 26 24 24 22 19 20 24 22 18 18 20 23 27 30 28 29 26 18 16 22 18 17
11 10 13 13 18 18 12 15 18 23 33 39 37 33 33 27 25 23 20 16 12 15 15 13 10 12 13 13 13 12 13 18 21 24 23 18 14 15 12 8 9 13 20
11 12 9 9 9 8 3 6 8 18 25 30 37 41 41 40 40 36 26 22 20 18 15 8 15 19 19 16 16 16 14 17 10 16 17 11 11 10 6 5 6 9 17
3 5 4 5 6 5 7 9 12 17 22 27 34 49 41 37 40 42 46 41 28 26 17 10 13 26 23 21 29 29 23 8 16 3 11 10 10 9 6 6 10 13 16
5 8 9 12 11 13 15 17 22 21 23 32 39 45 45 53 55 47 50 57 69 54 54 44 25 27 28 25 30 40 17 24 8 13 4 6 13 11 8 11 10 10 8
16 18 18 16 17 15 20 22 23 29 35 37 37 46 56 53 59 44 40 41 45 50 77 88 83 51 34 40 36 28 16 4 17 5 13 20 12 10 6 5 2 3 5
14 16 23 24 19 19 22 27 31 34 37 39 39 42 49 54 46 46 54 56 45 44 41 40 38 61 60 65 62 45 26 27 11 6 8 21 19 12 9 11 9 9 9
20 17 13 18 23 27 31 37 43 45 47 45 45 47 48 43 47 51 53 53 47 38 39 30 32 34 48 54 47 30 35 25 29 30 15 5 11 16 16 17 14 11 7
7 9 15 21 22 25 33 36 35 37 39 46 52 59 59 56 57 56 57 57 48 45 41 37 38 32 36 44 41 37 28 28 23 24 21 18 22 18 14 13 12 10 7
Wind_Direction_850mb
148 156 158 157 152 145 146 144 139 130 127 126 123 119 112 107 102 99 95 93 90 89 87 87 85 84 84 85 84 82 78 74 71 67 64 64 63 61 62 64 66 69 69
140 144 159 160 159 151 148 150 150 143 133 129 124 119 113 104 98 94 91 90 90 91 92 90 88 88 87 85 84 83 81 73 69 66 64 62 64 63 58 58 62 65 68
142 139 154 166 165 162 157 157 154 149 140 128 121 119 113 106 99 92 89 88 88 90 91 90 87 85 84 85 88 82 70 64 65 60 60 58 56 60 59 53 52 58 62
127 108 125 162 169 170 166 162 159 154 151 144 135 128 121 113 104 98 88 77 68 66 70 78 81 77 70 65 69 79 74 66 50 44 41 40 46 43 54 54 44 44 50
107 103 106 140 169 174 172 170 165 163 167 174 172 167 148 136 129 102 73 57 52 43 39 43 57 69 67 57 43 32 27 11 20 8 359 2 3 51 27 42 43 32 32
98 99 110 126 155 171 178 186 182 182 188 198 203 214 223 217 228 236 304 341 359 11 7 7 10 16 33 40 41 23 344 326 319 320 320 354 335 1 20 1 28 13 12
98 103 113 131 156 176 183 191 201 206 215 227 233 232 236 233 233 242 254 276 302 320 329 327 322 326 319 305 299 308 303 296 293 284 278 288 308 263 289 287 329 352 338
70 84 88 123 157 174 191 201 210 222 232 242 249 251 248 247 250 257 275 298 312 316 314 305 303 301 302 311 310 297 290 291 299 295 279 269 260 267 242 260 289 310 326
96 108 111 127 151 163 182 210 225 233 243 253 265 273 276 274 274 278 289 299 306 310 309 308 310 311 314 312 316 329 324 321 319 316 294 268 264 243 262 254 256 283 307
98 79 121 122 95 148 223 243 257 251 253 256 261 262 266 271 274 277 282 289 280 283 299 311 313 310 316 317 322 331 327 316 314 319 315 286 260 251 256 261 259 264 280
144 239 6 53 12 307 261 259 260 261 261 266 272 275 277 276 272 270 266 244 255 267 281 283 301 307 298 308 283 327 323 333 311 333 338 281 260 259 267 282 270 254 267
175 239 223 72 347 331 340 321 297 309 302 285 273 264 264 267 267 268 256 254 266 261 262 274 275 284 285 305 287 299 317 326 270 352 354 315 306 282 292 267 251 260 263
150 164 231 276 257 279 304 338 299 301 289 296 285 286 269 261 267 279 277 267 274 269 271 279 271 268 275 299 313 262 292 359 323 320 298 323 284 286 278 287 253 275 280
162 196 213 181 265 302 315 300 284 284 277 279 277 284 283 274 272 273 279 278 281 282 277 283 278 256 253 268 277 273 278 286 293 308 269 285 276 269 282 286 272 279 285
122 154 184 208 248 298 275 283 281 284 295 286 289 282 276 276 270 285 287 286 288 279 275 275 270 255 256 266 284 285 274 283 299 300 283 294 283 271 282 297 281 277 283
108 111 187 262 267 291 284 292 300 302 302 311 326 332 304 296 306 304 296 290 283 278 274 273 267 263 261 268 276 281 278 276 275 279 283 301 299 273 275 272 262 284 313
72 47 41 21 352 339 324 313 308 309 308 301 307 326 325 326 323 313 295 278 267 267 267 264 261 252 254 264 270 277 281 279 281 279 278 274 281 273 274 295 268 261 285
78 51 23 30 25 359 337 326 302 298 302 308 299 296 301 300 296 291 300 292 279 270 263 255 253 259 259 263 267 272 287 281 285 287 289 287 279 278 279 297 284 264 286
84 90 66 49 36 34 20 7 351 325 297 289 291 301 299 284 271 271 272 256 271 268 250 251 263 268 267 266 266 282 311 317 306 303 309 309 288 262 264 243 240 252 245
125 118 112 107 82 73 108 17 305 321 291 284 292 296 296 299 284 269 252 236 222 202 207 237 276 299 318 310 302 299 309 314 317 321 331 354 19 42 81 137 195 228 273
64 35 145 163 164 163 209 224 231 286 280 287 293 291 292 291 287 281 275 252 217 217 250 295 336 325 325 324 329 321 332 170 305 314 22 11 7 0 352 296 270 245 259
327 216 215 205 214 218 233 252 264 273 279 298 292 288 296 313 313 297 289 284 271 276 288 295 315 300 295 306 321 323 315 318 172 330 341 320 321 315 298 286 264 261 274
246 245 232 246 255 271 291 274 273 269 273 277 279 294 303 309 304 308 304 298 293 287 283 289 293 282 289 300 292 281 282 276 304 210 310 299 301 288 284 277 247 320 330
266 258 262 264 276 273 267 269 272 272 273 275 278 283 304 302 291 297 300 302 302 288 278 278 293 263 275 282 274 266 259 266 308 263 320 299 293 271 241 255 277 299 319
321 321 291 261 273 274 267 272 271 270 276 279 276 278 281 283 284 288 288 288 295 293 284 293 267 260 258 258 255 251 259 256 269 285 322 256 261 251 248 238 255 284 292
311 258 226 239 250 258 264 272 278 283 286 283 282 279 273 269 271 273 280 278 278 278 283 283 280 270 254 259 262 273 271 270 253 267 282 272 274 263 244 235 257 270 271